This is the latest recevied weather packets stored in our database for station/object KI8L. If no packets are shown the sender has not sent any weather packets the latest 10 day(s).
| Time | Temp. | Humidity | Pressure | Rain* | Wind** | Luminosity | Snow |
|---|---|---|---|---|---|---|---|
| 1777548159 | 5° C | 97% | 1015.2 hPa | 0 mm | - | 36 W/m² | - |
| 1777547855 | 5° C | 98% | 1015.1 hPa | 0 mm | - | 29 W/m² | - |
| 1777547552 | 5° C | 97% | 1015.1 hPa | 0 mm | - | 20 W/m² | - |
| 1777547249 | 5° C | 97% | 1015.2 hPa | 0 mm | - | 11 W/m² | - |
| 1777546946 | 5° C | 97% | 1015.1 hPa | 0 mm | - | 9 W/m² | - |
| 1777546643 | 5° C | 97% | 1014.9 hPa | 0 mm | - | 10 W/m² | - |
| 1777546339 | 5° C | 97% | 1014.8 hPa | 0 mm | - | 8 W/m² | - |
| 1777546037 | 5° C | 98% | 1014.8 hPa | 0 mm | - | 6 W/m² | - |
| 1777545733 | 5° C | 98% | 1014.8 hPa | 0 mm | - | 5 W/m² | - |
| 1777545430 | 5° C | 98% | 1014.9 hPa | 0 mm | - | 4 W/m² | - |
| 1777545127 | 5° C | 97% | 1014.8 hPa | 0 mm | - | 2 W/m² | - |
| 1777544824 | 5° C | 97% | 1014.6 hPa | 0 mm | - | 1 W/m² | - |
| 1777544520 | 5° C | 97% | 1014.6 hPa | 0 mm | - | 1 W/m² | - |
| 1777544216 | 5° C | 98% | 1014.7 hPa | 0 mm | - | 0 W/m² | - |
| 1777543914 | 5° C | 98% | 1014.7 hPa | 0 mm | - | 0 W/m² | - |
| 1777543610 | 5° C | 98% | 1014.7 hPa | 0 mm | - | 0 W/m² | - |
| 1777543306 | 5° C | 99% | 1014.6 hPa | 0 mm | - | 0 W/m² | - |
| 1777543002 | 5° C | 99% | 1014.5 hPa | 0 mm | - | 0 W/m² | - |
| 1777542698 | 5° C | 99% | 1014.8 hPa | 0 mm | - | 0 W/m² | - |
| 1777542396 | 5° C | 99% | 1014.5 hPa | 0 mm | - | 0 W/m² | - |
| 1777542092 | 5° C | 99% | 1014.6 hPa | 0 mm | - | 0 W/m² | - |
| 1777541789 | 5° C | 99% | 1014.6 hPa | 0 mm | - | 0 W/m² | - |
| 1777541486 | 5° C | 99% | 1014.4 hPa | 0 mm | - | 0 W/m² | - |
| 1777541182 | 5° C | 99% | 1014.5 hPa | 0 mm | - | 0 W/m² | - |
| 1777540879 | 5° C | 99% | 1014.5 hPa | 0 mm | - | 0 W/m² | - |
* Rain latest hour (hover to see other rain measurements)
** Current wind speed in m/s (hover to see current wind gust speed)